DW3901 Weather Reports


Display with metric or nautical units.
time (UTC)temp
F
wind
direction
speed
MPH
gust
MPH
rain 1hr
in
rain 24hr
in
rain mn
in
humidity
%
barometer
mb
20260506033002 62 301 10.0 16.0 0.00 0.00 0.00 79 1005.8
20260506031558 63 295 8.0 15.0 0.00 0.00 0.00 78 1005.4
20260506030058 64 318 10.0 14.0 0.00 0.00 0.00 78 1005.2
20260506024555 65 350 11.0 16.0 0.00 0.00 0.00 78 1004.8
20260506023057 67 329 8.0 16.0 0.00 0.00 0.00 77 1004.1
20260506021554 67 342 6.0 13.0 0.00 0.00 0.00 77 1003.8
20260506020041 68 333 7.0 13.0 0.00 0.00 0.00 77 1003.7
20260506014543 68 315 6.0 13.0 0.00 0.00 0.00 76 1003.4
20260506013036 69 346 9.0 18.0 0.00 0.00 0.00 76 1003.2
20260506011533 70 326 10.0 14.0 0.00 0.00 0.00 74 1003.0
20260506010045 72 360 8.0 11.0 0.00 0.00 0.00 74 1002.4
20260506004530 73 355 6.0 12.0 0.00 0.00 0.00 72 1002.3
20260506003032 73 333 7.0 11.0 0.00 0.00 0.00 71 1002.2
20260506001529 74 298 10.0 15.0 0.00 0.00 0.00 70 1001.9
20260506000029 75 306 8.0 14.0 0.00 0.00 0.00 69 1001.9
20260505234539 77 310 10.0 15.0 0.00 0.00 0.00 67 1001.8
20260505233035 79 302 8.0 14.0 0.00 0.00 0.00 62 1001.5
20260505231531 81 316 10.0 15.0 0.00 0.00 0.00 59 1001.2
20260505230026 83 286 4.0 9.0 0.00 0.00 0.00 53 1000.6
20260505224530 84 238 4.0 10.0 0.00 0.00 0.00 53 1000.9
20260505223025 85 299 5.0 14.0 0.00 0.00 0.00 51 1000.4
20260505221525 88 233 7.0 11.0 0.00 0.00 0.00 52 1000.1
20260505220025 87 250 6.0 14.0 0.00 0.00 0.00 53 1000.2
20260505214544 88 226 8.0 16.0 0.00 0.00 0.00 54 1000.4
20260505213021 88 219 12.0 16.0 0.00 0.00 0.00 52 1000.5
20260505211520 87 234 15.0 20.0 0.00 0.00 0.00 52 1000.5
20260505210019 88 196 8.0 16.0 0.00 0.00 0.00 54 1000.6
20260505204519 87 230 7.0 16.0 0.00 0.00 0.00 56 1000.9
20260505203022 85 252 6.0 15.0 0.00 0.00 0.00 60 1001.2
20260505201517 85 194 5.0 16.0 0.00 0.00 0.00 62 1001.2
20260505200011 84 198 9.0 16.0 0.00 0.00 0.00 62 1001.2
20260505194512 84 188 12.0 21.0 0.00 0.00 0.00 64 1001.2
20260505193010 83 178 11.0 19.0 0.00 0.00 0.00 65 1001.1
20260505191507 83 181 11.0 19.0 0.00 0.00 0.00 66 1001.1
20260505190004 82 194 11.0 17.0 0.00 0.00 0.00 67 1001.2
20260505184601 82 160 11.0 18.0 0.00 0.00 0.00 67 1001.3
20260505183102 81 203 11.0 16.0 0.00 0.00 0.00 67 1001.4
20260505181557 81 182 11.0 20.0 0.00 0.00 0.00 67 1001.6
20260505180107 80 200 12.0 20.0 0.00 0.00 0.00 68 1001.4
20260505174603 80 213 14.0 22.0 0.00 0.00 0.00 70 1001.4
20260505173053 80 191 12.0 21.0 0.00 0.00 0.00 69 1001.4
20260505171550 79 174 10.0 21.0 0.00 0.00 0.00 71 1001.6
20260505170049 79 161 12.0 19.0 0.00 0.00 0.00 71 1001.5
20260505164550 78 190 10.0 25.0 0.00 0.00 0.00 72 1001.6
20260505163052 78 186 12.0 20.0 0.00 0.00 0.00 72 1002.0
20260505161549 78 204 12.0 23.0 0.00 0.00 0.00 72 1001.4
20260505153004 76 203 9.0 16.0 0.00 0.00 0.00 76 1001.2
20260505151603 76 186 11.0 19.0 0.00 0.00 0.00 78 1001.4
20260505124545 71 179 9.0 15.0 0.00 0.00 0.00 83 1001.0
20260505123041 71 180 11.0 17.0 0.00 0.00 0.00 84 1000.9
20260505121540 71 178 9.0 17.0 0.00 0.00 0.00 84 1000.9
20260505120042 70 167 10.0 15.0 0.00 0.00 0.00 85 1000.6
20260505114539 70 175 9.0 16.0 0.00 0.00 0.00 85 1000.5
20260505113038 70 156 8.0 14.0 0.00 0.00 0.00 84 1000.6
20260505111538 71 167 8.0 15.0 0.00 0.00 0.00 83 1000.4
20260505101536 71 194 9.0 18.0 0.00 0.00 0.00 83 1000.6
20260505100032 71 176 12.0 19.0 0.00 0.00 0.00 83 1000.4
20260505094531 70 156 10.0 19.0 0.00 0.00 0.00 84 1000.6
20260505093035 70 179 10.0 17.0 0.00 0.00 0.00 84 1000.8
20260505091528 70 187 10.0 20.0 0.00 0.00 0.00 84 1000.9
20260505090029 70 167 11.0 17.0 0.00 0.00 0.00 84 1001.0
20260505084529 70 174 10.0 19.0 0.00 0.00 0.00 83 1000.9
20260505083027 70 171 12.0 17.0 0.00 0.00 0.00 83 1000.9
20260505081523 71 187 12.0 18.0 0.00 0.00 0.00 82 1000.9
20260505080020 71 193 12.0 21.0 0.00 0.00 0.00 81 1001.1
20260505074518 71 190 10.0 17.0 0.00 0.00 0.00 81 1001.3
20260505073014 71 182 10.0 17.0 0.00 0.00 0.00 80 1001.6
20260505071513 71 184 12.0 22.0 0.00 0.00 0.00 79 1001.6
20260505070011 71 159 10.0 19.0 0.00 0.00 0.00 79 1001.9
20260505064508 72 146 11.0 20.0 0.00 0.00 0.00 78 1002.0
20260505063007 71 188 10.0 19.0 0.00 0.00 0.00 78 1002.1
20260505061509 72 167 13.0 21.0 0.00 0.00 0.00 77 1002.2
20260505060004 71 151 13.0 17.0 0.00 0.00 0.00 77 1002.1
20260505054501 71 153 10.0 17.0 0.00 0.00 0.00 77 1002.4
20260505053059 72 159 11.0 20.0 0.00 0.00 0.00 76 1002.5
20260505051612 72 165 10.0 19.0 0.00 0.00 0.00 75 1002.8
20260505041551 73 147 15.0 25.0 0.00 0.00 0.00 73 1002.8
20260505040048 73 149 11.0 21.0 0.00 0.00 0.00 73 1002.9
20260505034547 73 166 11.0 18.0 0.00 0.00 0.00 72 1002.9